EW8897 Weather Reports


Display with metric or nautical units.
time (UTC)temp
F
wind
direction
speed
MPH
gust
MPH
rain 1hr
in
rain 24hr
in
rain mn
in
humidity
%
barometer
mb
20260504190516 73 0 0.0 0.0 0.00 0.00 0.00 36 1010.3
20260504190034 72 0 0.0 0.0 0.00 0.00 0.00 38 1010.5
20260504185511 73 0 0.0 0.0 0.00 0.00 0.00 38 1010.6
20260504185016 72 0 0.0 0.0 0.00 0.00 0.00 38 1010.7
20260504184530 72 0 0.0 0.0 0.00 0.00 0.00 38 1010.7
20260504184015 71 0 0.0 0.0 0.00 0.00 0.00 38 1010.9
20260504183513 71 0 0.0 0.0 0.00 0.00 0.00 37 1011.0
20260504183030 71 0 0.0 0.0 0.00 0.00 0.00 36 1011.0
20260504182512 71 0 0.0 0.0 0.00 0.00 0.00 40 1011.0
20260504182013 71 0 0.0 0.0 0.00 0.00 0.00 39 1011.1
20260504181534 71 0 0.0 0.0 0.00 0.00 0.00 36 1011.2
20260504181012 71 0 0.0 0.0 0.00 0.00 0.00 41 1011.2
20260504180514 71 0 0.0 0.0 0.00 0.00 0.00 38 1011.3
20260504180034 70 0 0.0 0.0 0.00 0.00 0.00 39 1011.3
20260504175512 70 0 0.0 0.0 0.00 0.00 0.00 40 1011.3
20260504175015 70 0 0.0 0.0 0.00 0.00 0.00 43 1011.4
20260504174530 70 0 0.0 0.0 0.00 0.00 0.00 39 1011.5
20260504174013 70 0 0.0 0.0 0.00 0.00 0.00 38 1011.4
20260504173513 70 0 0.0 0.0 0.00 0.00 0.00 38 1011.5
20260504173031 69 0 0.0 0.0 0.00 0.00 0.00 38 1011.4
20260504172513 70 0 0.0 0.0 0.00 0.00 0.00 37 1011.6
20260504172014 70 0 0.0 0.0 0.00 0.00 0.00 39 1011.6
20260504171530 70 0 0.0 0.0 0.00 0.00 0.00 38 1011.7
20260504171012 69 0 0.0 0.0 0.00 0.00 0.00 39 1011.8
20260504170511 69 0 0.0 0.0 0.00 0.00 0.00 36 1011.9
20260504151013 65 0 0.0 0.0 0.00 0.00 0.00 38 1013.3
20260504150515 65 0 0.0 0.0 0.00 0.00 0.00 38 1013.3
20260504141011 62 0 0.0 0.0 0.00 0.00 0.00 41 1013.7
20260504140511 62 0 0.0 0.0 0.00 0.00 0.00 41 1013.7
20260504130513 57 0 0.0 0.0 0.00 0.00 0.00 49 1013.6
20260504110511 44 0 0.0 0.0 0.00 0.00 0.00 64 1014.2
20260504100511 40 0 0.0 0.0 0.00 0.00 0.00 69 1014.3
20260504081529 41 0 0.0 0.0 0.00 0.00 0.00 70 1014.8
20260504081013 41 0 0.0 0.0 0.00 0.00 0.00 69 1014.9
20260504080512 41 0 0.0 0.0 0.00 0.00 0.00 69 1014.9
20260504050511 43 0 0.0 0.0 0.00 0.00 0.00 68 1014.8
20260504045510 43 0 0.0 0.0 0.00 0.00 0.00 67 1014.9
20260504045010 43 0 0.0 0.0 0.00 0.00 0.00 67 1014.9
20260504044536 43 0 0.0 0.0 0.00 0.00 0.00 67 1014.9
20260504044011 43 0 0.0 0.0 0.00 0.00 0.00 67 1014.9
20260504043512 43 0 0.0 0.0 0.00 0.00 0.00 66 1014.9
20260504043040 43 0 0.0 0.0 0.00 0.00 0.00 67 1014.8
20260504042514 43 0 0.0 0.0 0.00 0.00 0.00 68 1014.9
20260504042014 43 0 0.0 0.0 0.00 0.00 0.00 69 1014.8
20260504041527 43 0 0.0 0.0 0.00 0.00 0.00 69 1014.7
20260504041010 43 0 0.0 0.0 0.00 0.00 0.00 68 1014.8
20260504040511 43 0 0.0 0.0 0.00 0.00 0.00 68 1014.8
20260504040027 43 0 0.0 0.0 0.00 0.00 0.00 67 1014.5
20260504035511 43 0 0.0 0.0 0.00 0.00 0.00 67 1014.5
20260504035011 44 0 0.0 0.0 0.00 0.00 0.00 66 1014.5
20260504034528 44 0 0.0 0.0 0.00 0.00 0.00 67 1014.6
20260504034011 44 0 0.0 0.0 0.00 0.00 0.00 67 1014.6
20260504033511 44 0 0.0 0.0 0.00 0.00 0.00 66 1014.5
20260504033030 44 0 0.0 0.0 0.00 0.00 0.00 65 1014.6
20260504032513 44 0 0.0 0.0 0.00 0.00 0.00 66 1014.5
20260504032012 44 0 0.0 0.0 0.00 0.00 0.00 66 1014.5
20260504031530 44 0 0.0 0.0 0.00 0.00 0.00 67 1014.4
20260504031012 44 0 0.0 0.0 0.00 0.00 0.00 68 1014.5
20260504030513 44 0 0.0 0.0 0.00 0.00 0.00 68 1014.4
20260504030031 44 0 0.0 0.0 0.00 0.00 0.00 67 1014.3
20260504025515 44 0 0.0 0.0 0.00 0.00 0.00 65 1014.4
20260504025010 44 0 0.0 0.0 0.00 0.00 0.00 65 1014.4
20260504024528 44 0 0.0 0.0 0.00 0.00 0.00 65 1014.5
20260504024013 44 0 0.0 0.0 0.00 0.00 0.00 66 1014.5
20260504023509 44 0 0.0 0.0 0.00 0.00 0.00 65 1014.3
20260504023029 44 0 0.0 0.0 0.00 0.00 0.00 67 1014.3
20260504022511 43 0 0.0 0.0 0.00 0.00 0.00 67 1014.5
20260504022012 43 0 0.0 0.0 0.00 0.00 0.00 69 1014.4
20260504021534 44 0 0.0 0.0 0.00 0.00 0.00 70 1014.3
20260504021012 44 0 0.0 0.0 0.00 0.00 0.00 69 1014.4
20260504020513 44 0 0.0 0.0 0.00 0.00 0.00 69 1014.4
20260504020035 44 0 0.0 0.0 0.00 0.00 0.00 68 1014.4
20260504015513 44 0 0.0 0.0 0.00 0.00 0.00 67 1014.4
20260504015010 44 0 0.0 0.0 0.00 0.00 0.00 68 1014.3
20260504014535 45 0 0.0 0.0 0.00 0.00 0.00 67 1014.3
20260504014012 45 0 0.0 0.0 0.00 0.00 0.00 68 1014.4
20260504013510 45 0 0.0 0.0 0.00 0.00 0.00 67 1014.4
20260504013030 45 0 0.0 0.0 0.00 0.00 0.00 67 1014.3
20260504012512 45 0 0.0 0.0 0.00 0.00 0.00 66 1014.2
20260504012010 46 0 0.0 0.0 0.00 0.00 0.00 66 1014.2
20260504011529 46 0 0.0 0.0 0.00 0.00 0.00 65 1014.1
20260504011012 46 0 0.0 0.0 0.00 0.00 0.00 64 1014.1
20260504010516 47 0 0.0 0.0 0.00 0.00 0.00 64 1014.1
20260504010028 47 0 0.0 0.0 0.00 0.00 0.00 63 1014.0
20260504005512 48 0 0.0 0.0 0.00 0.00 0.00 61 1014.0
20260504005009 48 0 0.0 0.0 0.00 0.00 0.00 61 1014.1
20260504004529 49 0 0.0 0.0 0.00 0.00 0.00 59 1014.1
20260504004012 49 0 0.0 0.0 0.00 0.00 0.00 58 1014.0
20260504003513 49 0 0.0 0.0 0.00 0.00 0.00 56 1013.9
20260504003030 50 0 0.0 0.0 0.00 0.00 0.00 55 1013.9
20260504002511 50 0 0.0 0.0 0.00 0.00 0.00 54 1013.8
20260504002011 51 0 0.0 0.0 0.00 0.00 0.00 50 1013.7
20260504001529 51 0 0.0 0.0 0.00 0.00 0.00 50 1013.6
20260504001011 52 0 0.0 0.0 0.00 0.00 0.00 48 1013.6
20260504000512 52 0 0.0 0.0 0.00 0.00 0.00 48 1013.5
20260504000028 53 0 0.0 0.0 0.00 0.00 0.00 48 1013.5
20260503235514 54 0 0.0 0.0 0.00 0.00 0.00 45 1013.6
20260503235012 54 0 0.0 0.0 0.00 0.00 0.00 47 1013.5
20260503234530 55 0 0.0 0.0 0.00 0.00 0.00 43 1013.4
20260503234009 55 0 0.0 0.0 0.00 0.00 0.00 43 1013.2
20260503233508 56 0 0.0 0.0 0.00 0.00 0.00 44 1013.2
20260503233030 56 0 0.0 0.0 0.00 0.00 0.00 39 1013.2
20260503232511 57 0 0.0 0.0 0.00 0.00 0.00 43 1013.3
20260503232010 57 0 0.0 0.0 0.00 0.00 0.00 40 1013.2
20260503231530 57 0 0.0 0.0 0.00 0.00 0.00 42 1013.2
20260503231011 58 0 0.0 0.0 0.00 0.00 0.00 37 1013.2
20260503230514 59 0 0.0 0.0 0.00 0.00 0.00 38 1013.3
20260503230030 59 0 0.0 0.0 0.00 0.00 0.00 35 1013.2
20260503225511 59 0 0.0 0.0 0.00 0.00 0.00 35 1013.2
20260503225011 59 0 0.0 0.0 0.00 0.00 0.00 35 1013.2
20260503224529 59 0 0.0 0.0 0.00 0.00 0.00 38 1013.2
20260503224009 59 0 0.0 0.0 0.00 0.00 0.00 35 1013.1
20260503223513 60 0 0.0 0.0 0.00 0.00 0.00 33 1013.3
20260503223032 60 0 0.0 0.0 0.00 0.00 0.00 33 1013.2
20260503222511 60 0 0.0 0.0 0.00 0.00 0.00 34 1013.2
20260503222012 60 0 0.0 0.0 0.00 0.00 0.00 37 1013.3
20260503221528 60 0 0.0 0.0 0.00 0.00 0.00 36 1013.2
20260503221012 60 0 0.0 0.0 0.00 0.00 0.00 33 1013.2
20260503220514 60 0 0.0 0.0 0.00 0.00 0.00 37 1013.3
20260503220030 60 0 0.0 0.0 0.00 0.00 0.00 36 1013.3
20260503215511 61 0 0.0 0.0 0.00 0.00 0.00 33 1013.4
20260503215011 61 0 0.0 0.0 0.00 0.00 0.00 33 1013.4
20260503214538 61 0 0.0 0.0 0.00 0.00 0.00 34 1013.3
20260503214010 60 0 0.0 0.0 0.00 0.00 0.00 34 1013.3
20260503213511 61 0 0.0 0.0 0.00 0.00 0.00 32 1013.3
20260503213031 62 0 0.0 0.0 0.00 0.00 0.00 31 1013.2
20260503212512 62 0 0.0 0.0 0.00 0.00 0.00 32 1013.2
20260503212014 62 0 0.0 0.0 0.00 0.00 0.00 32 1013.2
20260503211538 61 0 0.0 0.0 0.00 0.00 0.00 33 1013.0
20260503211012 61 0 0.0 0.0 0.00 0.00 0.00 34 1013.2
20260503210511 61 0 0.0 0.0 0.00 0.00 0.00 33 1013.2
20260503210029 62 0 0.0 0.0 0.00 0.00 0.00 32 1013.3
20260503205511 62 0 0.0 0.0 0.00 0.00 0.00 32 1013.1
20260503205011 62 0 0.0 0.0 0.00 0.00 0.00 36 1013.2
20260503204531 61 0 0.0 0.0 0.00 0.00 0.00 37 1013.3
20260503204014 60 0 0.0 0.0 0.00 0.00 0.00 35 1013.2
20260503203512 60 0 0.0 0.0 0.00 0.00 0.00 33 1013.2
20260503203030 60 0 0.0 0.0 0.00 0.00 0.00 36 1013.3
20260503202513 60 0 0.0 0.0 0.00 0.00 0.00 34 1013.2
20260503202015 61 0 0.0 0.0 0.00 0.00 0.00 33 1013.3
20260503201528 61 0 0.0 0.0 0.00 0.00 0.00 32 1013.2
20260503201014 61 0 0.0 0.0 0.00 0.00 0.00 34 1013.2
20260503200513 60 0 0.0 0.0 0.00 0.00 0.00 35 1013.3
20260503200046 61 0 0.0 0.0 0.00 0.00 0.00 34 1013.4
20260503195511 61 0 0.0 0.0 0.00 0.00 0.00 31 1013.5
20260503195012 60 0 0.0 0.0 0.00 0.00 0.00 35 1013.6
20260503194530 60 0 0.0 0.0 0.00 0.00 0.00 36 1013.6
20260503194012 60 0 0.0 0.0 0.00 0.00 0.00 35 1013.7
20260503193512 60 0 0.0 0.0 0.00 0.00 0.00 33 1013.7
20260503193033 59 0 0.0 0.0 0.00 0.00 0.00 36 1013.8
20260503192509 59 0 0.0 0.0 0.00 0.00 0.00 37 1013.7
20260503192012 59 0 0.0 0.0 0.00 0.00 0.00 34 1013.8
20260503191529 59 0 0.0 0.0 0.00 0.00 0.00 35 1013.9
20260503191010 60 0 0.0 0.0 0.00 0.00 0.00 34 1013.8